Location: Cheching
(60.0667°N, 164.2167°W)
Time: 12:19:37
(UTC+00:00)

FENGYUN 1C DEB - Pass Details

Date: 29 September 2021
Orbit: 727 x 819 km, 99.4° (Epoch: 17 October)

Event Time Altitude Azimuth Distance (km) Brightness Sun altitude
Exits shadow 12:01:38 46° 56° (NE) 996 ? -30.8°
Drops below altitude 10° 12:06:19 10° 347° (NNW) 2,282 ? -30.6°
Sets 12:08:42 0° 341° (NNW) 3,224 ? -30.4°
